Location: Days
(41.3591°N, 106.7339°W)
Time: 13:06:04
(UTC+00:00)

RS-15 - Pass Details

Date: 04 July 2022
Orbit: 1881 x 2163 km, 64.8° (Epoch: 13 August)

Event Time Altitude Azimuth Distance (km) Brightness Sun altitude
Rises 08:43:43 0° 318° (NW) 5,688 10.8 -22.3°
Reaches altitude 10° 08:48:26 10° 304° (NW) 4,660 10.1 -22.0°
Maximum altitude 08:56:22 21° 262° (W) 3,785 9.2 -21.3°
Enters shadow 08:59:38 18° 242° (WSW) 3,910 9.1 -21.1°
